Weather History for KSKF - March, 2013

Change the Weather History Date:

Tuesday, March 12, 2013

  Actual Average Record
Temperature  
Mean Temperature 58 °F -  
Max Temperature 79 °F 70 °F 89 °F (2006)
Min Temperature 38 °F 50 °F 38 °F (2013)
Degree Days  
Heating Degree Days 6    
Growing Degree Days 8 (Base 50)    
Moisture  
Dew Point 31 °F    
Average Humidity 40    
Maximum Humidity 76    
Minimum Humidity 15    
Precipitation  
Precipitation 0.00 in - - ()
Sea Level Pressure  
Sea Level Pressure 30.11 in    
Wind  
Wind Speed 5 mph (SSE)    
Max Wind Speed 12 mph    
Max Gust Speed 17 mph    
Visibility 10 miles    
Events      
Averages and records for this station are not official NWS values.
T = Trace of Precipitation, MM = Missing Value Source: NWS Daily Summary

Daily Weather History Graph

Daily Weather History Graph

Search for Another Location

Airport or City:

Trip Planner

Search our weather history database for the weather conditions in past years. The results will help you decide how hot, cold, wet, or windy it might be!

Date:

Astronomy

Mar. 12, 2013 Rise Set
Actual Time 7:47 AM CDT 7:41 PM CDT
Civil Twilight 7:23 AM CDT 8:04 PM CDT
Nautical Twilight 6:55 AM CDT 8:32 PM CDT
Astronomical Twilight 6:28 AM CDT 9:00 PM CDT
Moon 8:01 AM CDT (3/12) 8:47 PM CDT (3/12)
Length of Visible Light 12h 41m
Length of Day
11h 53m
New Moon, 1% of the Moon is Illuminated
Mar 12
New Moon
Mar 19
First Quarter
Mar 27
Full
Apr 2
Last Quarter
Apr 10
New

Hourly Weather History & Observations

Time (CDT) Temp. Windchill Dew Point Humidity Pressure Visibility Wind Dir Wind Speed Gust Speed Precip Events Conditions
12:58 AM 50.9 °F - 25.9 °F 38% 30.07 in 10.0 mi ESE 5.8 mph - N/A   Clear
1:58 AM 47.1 °F - 27.0 °F 46% 30.08 in 10.0 mi East 4.6 mph - N/A   Clear
2:58 AM 44.2 °F 41.8 °F 27.7 °F 52% 30.08 in 10.0 mi ESE 4.6 mph - N/A   Clear
3:58 AM 43.7 °F - 28.2 °F 54% 30.07 in 10.0 mi ENE 2.3 mph - N/A   Clear
4:58 AM 42.3 °F - 27.5 °F 56% 30.08 in 10.0 mi Calm Calm - N/A   Clear
5:58 AM 38.3 °F 35.9 °F 29.8 °F 72% 30.09 in 10.0 mi North 3.5 mph - N/A   Clear
6:58 AM 38.1 °F 34.6 °F 31.1 °F 76% 30.10 in 10.0 mi NNW 4.6 mph - N/A   Clear
7:58 AM 38.1 °F 35.7 °F 30.4 °F 74% 30.11 in 10.0 mi North 3.5 mph - N/A   Clear
8:58 AM 45.3 °F - 34.5 °F 66% 30.14 in 10.0 mi NW 1.2 mph - N/A   Clear
9:58 AM 55.8 °F - 32.7 °F 42% 30.17 in 10.0 mi South 4.6 mph - N/A   Clear
10:58 AM 62.6 °F - 32.9 °F 33% 30.18 in 10.0 mi South 10.4 mph - N/A   Clear
11:58 AM 67.1 °F - 33.6 °F 29% 30.17 in 10.0 mi SSW 9.2 mph - N/A   Clear
12:58 PM 71.2 °F - 31.6 °F 23% 30.15 in 10.0 mi SW 8.1 mph - N/A   Clear
1:58 PM 73.8 °F - 32.7 °F 22% 30.13 in 10.0 mi Variable 2.3 mph - N/A   Clear
2:58 PM 76.5 °F - 30.9 °F 19% 30.09 in 10.0 mi South 11.5 mph 17.3 mph N/A   Clear
3:58 PM 78.3 °F - 27.7 °F 16% 30.06 in 10.0 mi South 8.1 mph - N/A   Clear
4:58 PM 79.0 °F - 28.0 °F 15% 30.06 in 10.0 mi Variable 1.2 mph - N/A   Clear
5:58 PM 78.8 °F - 26.8 °F 15% 30.07 in 10.0 mi Variable 5.8 mph - N/A   Clear
6:58 PM 76.5 °F - 29.3 °F 18% 30.08 in 10.0 mi SE 3.5 mph - N/A   Clear
7:58 PM 68.0 °F - 30.7 °F 25% 30.11 in 10.0 mi SSE 5.8 mph - N/A   Clear
8:58 PM 62.1 °F - 28.8 °F 28% 30.13 in 8.0 mi SSE 2.3 mph - N/A   Clear
9:58 PM 59.5 °F - 31.3 °F 34% 30.15 in 10.0 mi South 8.1 mph - N/A   Clear
10:58 PM 60.3 °F - 40.5 °F 48% 30.18 in 10.0 mi SSE 10.4 mph - N/A   Clear
11:58 PM 55.9 °F - 41.7 °F 59% 30.20 in 10.0 mi SSE 6.9 mph - N/A   Clear